Location: Kalberh�ni
(46.4610°N, 7.2453°E)
Time: 20:39:43
(UTC+00:00)

USA 229 - Pass Details

Date: 25 October 2021
Orbit: 946 x 1266 km, 63.4° (Epoch: 25 November)

Event Time Altitude Azimuth Distance (km) Brightness Sun altitude
Exits shadow 04:46:01 11° 241° (WSW) 3,104 5.6 -13.8°
Drops below altitude 10° 04:46:54 10° 234° (SW) 3,205 5.7 -13.6°
Sets 04:51:48 0° 208° (SSW) 4,199 6.6 -12.8°
